Hourly Data Report for October 01, 2017

All times are specified in Local Standard Time (LST). Add 1 hour to adjust for Daylight Saving Time where and when it is observed.

PORT HARDY A
BRITISH COLUMBIA

50°40'50.000" N
127°22'00.000" W
21.60 m
1026271
71109
YZT

Download Data

Hourly Data (October 2017)
Hourly Data Report for October 1, 2017
Temp Definition
°C
Dew Point Temp Definition
°C
Rel Hum Definition
%
Wind Dir Definition
10's deg

Wind Spd Definition
km/h
Visibility Definition
km
Stn Press Definition
kPa
Hmdx Definition


Wind Chill Definition


Weather Definition


TIME
00:00 Legend Double Dagger 8.9 7.2 89 26 10 24.1 101.92     LegendNANA
01:00 Legend Double Dagger 9.1 7.3 88 27 14 24.1 101.94     Mainly Clear
02:00 Legend Double Dagger 10.4 8.0 85 28 11 24.1 101.98     LegendNANA
03:00 Legend Double Dagger 10.4 8.4 87 26 10 24.1 101.95     LegendNANA
04:00 Legend Double Dagger 11.6 8.5 81 30 10 24.1 101.99     Mostly Cloudy
05:00 Legend Double Dagger 11.3 8.5 83 28 12 24.1 102.01     LegendNANA
06:00 Legend Double Dagger 11.4 8.0 79 30 16 24.1 102.03     LegendNANA
07:00 Legend Double Dagger 11.3 8.2 81 29 13 32.2 102.07     Mainly Clear
08:00 Legend Double Dagger 11.9 7.9 76 31 18 32.2 102.08     LegendNANA
09:00 Legend Double Dagger 12.4 7.6 72 31 17 32.2 102.09     LegendNANA
10:00 Legend Double Dagger 12.8 7.7 71 32 25 32.2 102.11     Mainly Clear
11:00 Legend Double Dagger 13.7 7.4 66 33 25 32.2 102.12     LegendNANA
12:00 Legend Double Dagger 13.8 6.8 63 32 28 32.2 102.13     LegendNANA
13:00 Legend Double Dagger 14.8 5.9 55 33 22 32.2 102.12     Clear
14:00 Legend Double Dagger 14.8 5.4 53 32 22 32.2 102.09     LegendNANA
15:00 Legend Double Dagger 14.6 6.4 58 32 21 32.2 102.10     LegendNANA
16:00 Legend Double Dagger 14.2 5.9 57 30 19 32.2 102.12     Clear
17:00 Legend Double Dagger 13.3 6.1 61 30 16 32.2 102.12     LegendNANA
18:00 Legend Double Dagger 11.0 6.7 74 27 12 32.2 102.15     LegendNANA
19:00 Legend Double Dagger 10.6 7.0 78 23 17 24.1 102.18     Clear
20:00 Legend Double Dagger 10.4 7.4 82 25 13 24.1 102.17     LegendNANA
21:00 Legend Double Dagger 9.0 6.9 86 25 9 24.1 102.13     LegendNANA
22:00 Legend Double Dagger 7.8 6.2 90 19 12 24.1 102.10     Mainly Clear
23:00 Legend Double Dagger 7.4 6.0 91 20 6 24.1 102.09     LegendNANA

Notes on Data Quality.

Legend

  • E = Estimated
  • M = Missing
  • NA = Not Available
  • ‡ = Partner data that is not subject to review by the National Climate Archives
Date modified: